Weather History for Bentonville, AR

Change the Weather History Date:

Wednesday, November 9, 2011

  Actual Average Record
Temperature  
Mean Temperature 8 °C -  
Max Temperature 12 °C 15 °C 27 °C (1980)
Min Temperature 4 °C 2 °C -11 °C (1991)
Degree Days  
Heating Degree Days 19    
Moisture  
Dew Point 1 °C    
Average Humidity 65    
Maximum Humidity 93    
Minimum Humidity 35    
Precipitation  
Precipitation 0.00 mm - - ()
Sea Level Pressure  
Sea Level Pressure 1022 hPa    
Wind  
Wind Speed 19 km/h (NW)    
Max Wind Speed 32 km/h    
Max Gust Speed 45 km/h    
Visibility 15 kilometers    
Events      
Averages and records for this station are not official NWS values.
T = Trace of Precipitation, MM = Missing Value Source: NWS Daily Summary

Daily Weather History Graph

Daily Weather History Graph

Search for Another Location

Airport:

Trip Planner

Search our weather history database for the weather conditions in past years. The results will help you decide how hot, cold, wet, or windy it might be!

Date:

Astronomy

Nov. 09, 2011 Rise Set
Actual Time 6:47 AM CST 5:13 PM CST
Civil Twilight 6:20 AM CST 5:40 PM CST
Nautical Twilight 5:49 AM CST 6:11 PM CST
Astronomical Twilight 5:19 AM CST 6:41 PM CST
Moon 4:25 PM CST (11/9) 5:44 AM CST (11/9)
Length of Visible Light 11h 19m
Length of Day
10h 25m
Waxing Gibbous, 99% of the Moon is Illuminated
Nov 9
Waxing Gibbous
Nov 10
Full
Nov 18
Last Quarter
Nov 25
New
Dec 2
First Quarter

Hourly Weather History & Observations

Time (CST) Temp. Windchill Dew Point Humidity Pressure Visibility Wind Dir Wind Speed Gust Speed Precip Events Conditions
12:15 AM 8.0 °C 4.5 °C 7.0 °C 93% 1013.1 hPa 14.5 km West 24.1 km/h / 6.7 m/s 31.5 km/h / 8.7 m/s N/A   Overcast
12:35 AM 8.0 °C 4.5 °C 6.0 °C 87% 1013.1 hPa 16.1 km West 24.1 km/h / 6.7 m/s 35.2 km/h / 9.8 m/s N/A   Overcast
12:55 AM 8.0 °C 4.3 °C 6.0 °C 87% 1013.4 hPa 12.9 km West 25.9 km/h / 7.2 m/s 35.2 km/h / 9.8 m/s N/A   Overcast
1:15 AM 7.0 °C 3.2 °C 6.0 °C 93% 1014.1 hPa 11.3 km West 24.1 km/h / 6.7 m/s 38.9 km/h / 10.8 m/s N/A   Overcast
1:55 AM 7.0 °C 3.4 °C 5.0 °C 87% 1014.8 hPa 14.5 km West 22.2 km/h / 6.2 m/s 31.5 km/h / 8.7 m/s N/A   Overcast
2:15 AM 7.0 °C 3.8 °C 5.0 °C 87% 1014.8 hPa 11.3 km West 18.5 km/h / 5.1 m/s 25.9 km/h / 7.2 m/s N/A   Overcast
2:35 AM 6.0 °C 1.6 °C 4.0 °C 87% 1015.8 hPa 9.7 km WNW 27.8 km/h / 7.7 m/s 35.2 km/h / 9.8 m/s N/A   Overcast
2:55 AM 6.0 °C 2.3 °C 3.0 °C 81% 1015.8 hPa 8.0 km WNW 20.4 km/h / 5.7 m/s 33.3 km/h / 9.3 m/s N/A   Overcast
3:15 AM 6.0 °C 1.7 °C 3.0 °C 81% 1015.8 hPa 16.1 km NW 25.9 km/h / 7.2 m/s 33.3 km/h / 9.3 m/s N/A   Overcast
3:35 AM 4.0 °C -0.8 °C 2.0 °C 87% 1016.5 hPa 9.7 km NW 25.9 km/h / 7.2 m/s 38.9 km/h / 10.8 m/s N/A   Overcast
3:55 AM 4.0 °C -0.4 °C 2.0 °C 87% 1017.2 hPa 16.1 km WNW 22.2 km/h / 6.2 m/s 40.7 km/h / 11.3 m/s N/A   Overcast
4:15 AM 4.0 °C -0.8 °C 2.0 °C 87% 1017.5 hPa 16.1 km WNW 25.9 km/h / 7.2 m/s 37.0 km/h / 10.3 m/s N/A   Overcast
4:35 AM 4.0 °C -1.4 °C 1.0 °C 81% 1017.8 hPa 16.1 km NW 31.5 km/h / 8.7 m/s 44.4 km/h / 12.3 m/s N/A   Overcast
4:55 AM 4.0 °C 0.3 °C 2.0 °C 87% 1018.2 hPa 16.1 km NW 16.7 km/h / 4.6 m/s - N/A   Overcast
5:15 AM 4.0 °C -0.2 °C 2.0 °C 87% 1018.8 hPa 16.1 km NW 20.4 km/h / 5.7 m/s 29.6 km/h / 8.2 m/s N/A   Overcast
5:35 AM 4.0 °C -0.4 °C 2.0 °C 87% 1019.2 hPa 16.1 km NW 22.2 km/h / 6.2 m/s 27.8 km/h / 7.7 m/s N/A   Overcast
5:55 AM 4.0 °C 0.0 °C 1.0 °C 81% 1019.5 hPa 16.1 km NW 18.5 km/h / 5.1 m/s 27.8 km/h / 7.7 m/s N/A   Overcast
6:15 AM 4.0 °C 1.2 °C 2.0 °C 87% 1019.9 hPa 16.1 km NNW 11.1 km/h / 3.1 m/s 25.9 km/h / 7.2 m/s N/A   Overcast
6:35 AM 4.0 °C 0.3 °C 2.0 °C 87% 1020.2 hPa 16.1 km NW 16.7 km/h / 4.6 m/s 25.9 km/h / 7.2 m/s N/A   Overcast
6:55 AM 4.0 °C -0.2 °C 1.0 °C 81% 1020.5 hPa 16.1 km NNW 20.4 km/h / 5.7 m/s 33.3 km/h / 9.3 m/s N/A   Overcast
7:15 AM 4.0 °C 0.3 °C 1.0 °C 81% 1020.9 hPa 16.1 km NNW 16.7 km/h / 4.6 m/s 25.9 km/h / 7.2 m/s N/A   Overcast
7:35 AM 4.0 °C 0.9 °C 2.0 °C 87% 1021.9 hPa 16.1 km NNW 13.0 km/h / 3.6 m/s - N/A   Overcast
8:15 AM 5.0 °C 2.1 °C 1.0 °C 76% 1022.6 hPa 16.1 km NNW 13.0 km/h / 3.6 m/s 31.5 km/h / 8.7 m/s N/A   Overcast
8:35 AM 6.0 °C 3.0 °C 2.0 °C 76% 1022.9 hPa 16.1 km NNW 14.8 km/h / 4.1 m/s - N/A   Overcast
8:55 AM 6.0 °C 2.1 °C 1.0 °C 70% 1023.6 hPa 16.1 km North 22.2 km/h / 6.2 m/s 31.5 km/h / 8.7 m/s N/A   Overcast
9:15 AM 6.0 °C 2.5 °C 2.0 °C 76% 1023.6 hPa 16.1 km NNW 18.5 km/h / 5.1 m/s 31.5 km/h / 8.7 m/s N/A   Overcast
9:35 AM 7.0 °C 4.0 °C 1.0 °C 66% 1023.9 hPa 16.1 km North 16.7 km/h / 4.6 m/s 27.8 km/h / 7.7 m/s N/A   Mostly Cloudy
9:55 AM 7.0 °C 4.0 °C 1.0 °C 66% 1023.9 hPa 16.1 km NNW 16.7 km/h / 4.6 m/s 31.5 km/h / 8.7 m/s N/A   Mostly Cloudy
10:35 AM 8.0 °C 5.5 °C 1.0 °C 62% 1024.6 hPa 16.1 km NNW 14.8 km/h / 4.1 m/s - N/A   Partly Cloudy
10:55 AM 9.0 °C - 1.0 °C 58% 1024.6 hPa 16.1 km NNW 13.0 km/h / 3.6 m/s 31.5 km/h / 8.7 m/s N/A   Partly Cloudy
11:15 AM 9.0 °C - 1.0 °C 58% 1024.6 hPa 16.1 km NNW 13.0 km/h / 3.6 m/s - N/A   Clear
11:35 AM 10.0 °C - 1.0 °C 54% 1024.6 hPa 16.1 km North 24.1 km/h / 6.7 m/s 31.5 km/h / 8.7 m/s N/A   Clear
11:55 AM 11.0 °C - 1.0 °C 50% 1024.6 hPa 16.1 km NNW 14.8 km/h / 4.1 m/s - N/A   Clear
12:15 PM 11.0 °C - -1.0 °C 44% 1024.3 hPa 16.1 km NW 14.8 km/h / 4.1 m/s - N/A   Clear
12:35 PM 11.0 °C - 0.0 °C 47% 1024.3 hPa 16.1 km NNW 16.7 km/h / 4.6 m/s 25.9 km/h / 7.2 m/s N/A   Clear
12:55 PM 11.0 °C - 0.0 °C 47% 1023.9 hPa 16.1 km NW 14.8 km/h / 4.1 m/s 25.9 km/h / 7.2 m/s N/A   Clear
1:15 PM 11.0 °C - -1.0 °C 44% 1023.9 hPa 16.1 km NW 18.5 km/h / 5.1 m/s - N/A   Clear
1:35 PM 12.0 °C - -1.0 °C 41% 1023.9 hPa 16.1 km NNW 13.0 km/h / 3.6 m/s - N/A   Clear
1:55 PM 12.0 °C - -1.0 °C 41% 1023.9 hPa 16.1 km WNW 18.5 km/h / 5.1 m/s - N/A   Clear
2:15 PM 12.0 °C - 0.0 °C 44% 1024.3 hPa 16.1 km NNW 14.8 km/h / 4.1 m/s 25.9 km/h / 7.2 m/s N/A   Clear
2:35 PM 12.0 °C - 0.0 °C 44% 1024.3 hPa 16.1 km NW 20.4 km/h / 5.7 m/s - N/A   Partly Cloudy
2:55 PM 12.0 °C - -1.0 °C 41% 1024.3 hPa 16.1 km NW 20.4 km/h / 5.7 m/s - N/A   Clear
3:15 PM 12.0 °C - -1.0 °C 41% 1024.3 hPa 16.1 km NNW 16.7 km/h / 4.6 m/s - N/A   Clear
3:35 PM 12.0 °C - -2.0 °C 38% 1024.6 hPa 16.1 km NW 16.7 km/h / 4.6 m/s 29.6 km/h / 8.2 m/s N/A   Clear
3:55 PM 12.0 °C - -3.0 °C 35% 1024.3 hPa 16.1 km NNW 16.7 km/h / 4.6 m/s 27.8 km/h / 7.7 m/s N/A   Clear
4:15 PM 11.0 °C - -1.0 °C 44% 1024.6 hPa 16.1 km NW 16.7 km/h / 4.6 m/s - N/A   Clear
4:35 PM 11.0 °C - -3.0 °C 38% 1024.6 hPa 16.1 km NW 16.7 km/h / 4.6 m/s 27.8 km/h / 7.7 m/s N/A   Clear
4:55 PM 11.0 °C - -2.0 °C 41% 1024.6 hPa 16.1 km NW 9.3 km/h / 2.6 m/s - N/A   Clear
5:15 PM 10.0 °C - -3.0 °C 40% 1024.6 hPa 16.1 km NNW 14.8 km/h / 4.1 m/s 27.8 km/h / 7.7 m/s N/A   Clear
5:55 PM 8.0 °C 6.8 °C -2.0 °C 50% 1024.9 hPa 16.1 km WNW 7.4 km/h / 2.1 m/s - N/A   Clear
6:15 PM 8.0 °C 7.3 °C -2.0 °C 50% 1024.9 hPa 16.1 km WNW 5.6 km/h / 1.5 m/s - N/A   Clear
6:55 PM 8.0 °C 6.4 °C -2.0 °C 50% 1025.3 hPa 16.1 km NW 9.3 km/h / 2.6 m/s - N/A   Clear
7:15 PM 8.0 °C 6.4 °C -2.0 °C 50% 1025.3 hPa 16.1 km NW 9.3 km/h / 2.6 m/s - N/A   Clear
7:35 PM 7.0 °C 5.2 °C -2.0 °C 53% 1025.6 hPa 16.1 km NW 9.3 km/h / 2.6 m/s - N/A   Clear
8:15 PM 7.0 °C 5.7 °C -3.0 °C 49% 1025.6 hPa 16.1 km NW 7.4 km/h / 2.1 m/s - N/A   Clear
8:35 PM 7.0 °C 5.7 °C -2.0 °C 53% 1026.0 hPa 16.1 km NW 7.4 km/h / 2.1 m/s - N/A   Clear
8:55 PM 6.0 °C 5.0 °C -2.0 °C 57% 1026.3 hPa 16.1 km WNW 5.6 km/h / 1.5 m/s - N/A   Clear
9:15 PM 4.0 °C - -2.0 °C 65% 1026.3 hPa 16.1 km Calm Calm - N/A   Clear
9:35 PM 4.0 °C 2.8 °C -2.0 °C 65% 1026.3 hPa 16.1 km WNW 5.6 km/h / 1.5 m/s - N/A   Clear
9:55 PM 4.0 °C - -2.0 °C 65% 1026.6 hPa 16.1 km Calm Calm - N/A   Clear
10:15 PM 4.0 °C - -2.0 °C 65% 1026.6 hPa 16.1 km Calm Calm - N/A   Clear
10:35 PM 4.0 °C - -2.0 °C 65% 1026.6 hPa 16.1 km Calm Calm - N/A   Clear
10:55 PM 3.0 °C - -2.0 °C 70% 1026.6 hPa 16.1 km Calm Calm - N/A   Clear
11:15 PM 3.0 °C 1.6 °C -2.0 °C 70% 1026.6 hPa 16.1 km WNW 5.6 km/h / 1.5 m/s - N/A   Clear
11:35 PM 3.0 °C - -2.0 °C 70% 1026.6 hPa 16.1 km Calm Calm - N/A   Clear
11:55 PM 3.0 °C - -2.0 °C 70% 1026.6 hPa 16.1 km Calm Calm - N/A   Clear